Date String (YYYY-MM-DD hh:mm:ss) UTC,Instrument flags,Ambient pressure (hPa),Sample flow (lpm),Bypass flow (lpm),Sample temperature (°C),Ambient temperature (°C),ASC tube jacket temperature (°C),LED temperature (°C),Box temperature (°C),Sample RH (%),Span deviation,Mass concentration (μg/m³),Mass concentration (μg/m³),Mass concentration (μg/m³)
DateTimeUTC,F1_M11,P_M11,Q1_M11,Q2_M11,T1_M11,T2_M11,T3_M11,T4_M11,T5_M11,U1_M11,ZSPAN_M11,X0_M11,X2_M11,X1_M11
2022-02-13 00:00:00,,0830.7,5.01,0.00,24.9,24.1,00.0,33.9,26.7,07.3,0000.0,0024.40,0006.33,0003.65
2022-02-13 00:01:00,,0830.7,4.99,0.00,24.9,24.1,00.0,33.9,26.7,07.8,0000.0,0025.13,0006.36,0003.61
2022-02-13 00:02:00,,0830.7,5.01,0.00,24.9,24.1,00.0,33.9,26.7,08.0,0000.0,0026.79,0006.40,0003.55
2022-02-13 00:03:00,,0830.6,4.99,0.00,24.9,24.1,00.0,33.9,26.7,08.3,0000.0,0027.08,0006.36,0003.50
2022-02-13 00:04:00,,0830.6,4.99,0.00,24.9,24.1,00.0,33.9,26.7,08.2,0000.0,0025.52,0006.25,0003.49
2022-02-13 00:05:00,,0830.6,5.02,0.00,24.9,24.0,00.0,33.9,26.7,07.7,0000.0,0024.64,0006.08,0003.52
2022-02-13 00:06:00,,0830.6,5.00,0.00,24.9,24.0,00.0,33.9,26.7,07.2,0000.0,0023.75,0005.96,0003.57
2022-02-13 00:07:00,,0830.6,5.00,0.00,24.9,24.0,00.0,33.9,26.7,07.2,0000.0,0022.12,0005.88,0003.63
2022-02-13 00:08:00,,0830.7,4.99,0.00,24.9,24.0,00.0,33.9,26.7,07.8,0000.0,0021.12,0005.85,0003.60
2022-02-13 00:09:00,,0830.7,4.99,0.00,24.9,24.0,00.0,33.9,26.7,07.7,0000.0,0021.20,0005.81,0003.61
2022-02-13 00:10:00,,0830.7,5.00,0.00,24.9,24.0,00.0,33.8,26.7,07.5,0000.0,0021.02,0005.79,0003.66
2022-02-13 00:11:00,,0830.8,5.00,0.00,24.9,24.0,00.0,33.8,26.7,07.6,0000.0,0020.46,0005.71,0003.70
2022-02-13 00:12:00,,0830.7,5.02,0.00,24.9,24.0,00.0,33.8,26.7,07.6,0000.0,0019.14,0005.68,0003.80
2022-02-13 00:13:00,,0830.7,4.99,0.00,24.9,24.1,00.0,33.8,26.7,07.9,0000.0,0016.84,0005.62,0003.90
2022-02-13 00:14:00,,0830.7,5.01,0.00,24.9,24.1,00.0,33.8,26.7,07.7,0000.0,0015.68,0005.62,0004.02
2022-02-13 00:15:00,,0830.7,5.01,0.00,24.9,24.1,00.0,33.8,26.7,07.6,0000.0,0015.09,0005.70,0004.13
2022-02-13 00:16:00,,0830.8,4.99,0.00,24.9,24.1,00.0,33.8,26.7,07.8,0000.0,0014.51,0005.74,0004.20
2022-02-13 00:17:00,,0830.9,5.02,0.00,24.9,24.1,00.0,33.8,26.8,07.8,0000.0,0014.19,0005.71,0004.23
2022-02-13 00:18:00,,0831.0,4.99,0.00,24.9,24.1,00.0,33.8,26.8,07.7,0000.0,0013.85,0005.67,0004.24
2022-02-13 00:19:00,,0830.9,5.00,0.00,24.9,24.1,00.0,33.8,26.8,07.7,0000.0,0013.39,0005.68,0004.33
2022-02-13 00:20:00,,0830.9,5.00,0.00,24.9,24.1,00.0,33.8,26.8,07.8,0000.0,0013.26,0005.70,0004.44
2022-02-13 00:21:00,,0830.9,4.99,0.00,24.9,24.1,00.0,33.8,26.8,07.8,0000.0,0013.29,0005.74,0004.52
2022-02-13 00:22:00,,0830.9,5.02,0.00,24.9,24.1,00.0,33.8,26.8,07.8,0000.0,0013.25,0005.79,0004.58
2022-02-13 00:23:00,,0830.9,5.00,0.00,24.9,24.0,00.0,33.8,26.8,07.9,0000.0,0013.40,0005.82,0004.60
2022-02-13 00:24:00,,0831.0,5.00,0.00,24.9,24.0,00.0,33.8,26.7,08.0,0000.0,0014.09,0005.87,0004.63
2022-02-13 00:25:00,,0830.9,4.99,0.00,24.9,24.1,00.0,33.8,26.7,08.1,0000.0,0014.42,0005.90,0004.65
2022-02-13 00:26:00,,0830.9,5.01,0.00,24.9,24.0,00.0,33.8,26.7,08.1,0000.0,0015.22,0005.89,0004.68
2022-02-13 00:27:00,,0830.9,4.99,0.00,24.9,24.0,00.0,33.8,26.7,08.2,0000.0,0016.27,0005.88,0004.72
2022-02-13 00:28:00,,0830.9,4.98,0.00,24.9,24.0,00.0,33.8,26.7,08.2,0000.0,0016.16,0005.92,0004.76
2022-02-13 00:29:00,,0830.9,5.02,0.00,24.9,24.0,00.0,33.8,26.7,08.1,0000.0,0016.45,0005.99,0004.80
2022-02-13 00:30:00,,0830.9,4.99,0.00,24.9,24.0,00.0,33.8,26.7,08.1,0000.0,0016.26,0006.00,0004.81
2022-02-13 00:31:00,,0830.9,5.00,0.00,24.9,24.0,00.0,33.8,26.7,08.1,0000.0,0015.28,0005.97,0004.81
2022-02-13 00:32:00,,0830.9,5.01,0.00,24.9,24.0,00.0,33.8,26.7,08.1,0000.5,0016.03,0005.95,0004.79
2022-02-13 00:33:00,,0830.9,4.99,0.00,24.9,24.0,00.0,33.8,26.7,08.1,0004.6,0016.45,0005.99,0004.79
2022-02-13 00:34:00,,0830.9,5.00,0.00,24.9,24.0,00.0,33.8,26.7,08.1,0004.6,0016.49,0006.04,0004.78
2022-02-13 00:35:00,,0830.9,5.01,0.00,24.9,24.0,00.0,33.8,26.7,08.1,0004.2,0015.74,0005.97,0004.77
2022-02-13 00:36:00,,0830.9,5.00,0.00,24.9,24.0,00.0,33.8,26.7,08.1,0003.9,0015.29,0005.91,0004.78
2022-02-13 00:37:00,,0831.0,4.99,0.00,24.9,24.0,00.0,33.8,26.7,08.0,0002.8,0014.67,0005.93,0004.78
2022-02-13 00:38:00,,0831.0,5.00,0.00,24.8,23.9,00.0,33.8,26.7,08.0,0000.0,0014.13,0005.94,0004.77
2022-02-13 00:39:00,,0831.0,5.01,0.00,24.8,23.9,00.0,33.8,26.7,08.1,0000.0,0014.47,0005.88,0004.75
2022-02-13 00:40:00,,0831.0,4.99,0.00,24.8,23.9,00.0,33.8,26.7,08.1,0000.0,0014.82,0005.87,0004.73
2022-02-13 00:41:00,,0831.0,4.99,0.00,24.8,23.9,00.0,33.8,26.7,08.1,0000.0,0015.13,0005.88,0004.70
2022-02-13 00:42:00,,0831.0,5.02,0.00,24.8,23.9,00.0,33.8,26.7,08.1,0000.0,0015.74,0005.96,0004.68
2022-02-13 00:43:00,,0831.0,4.99,0.00,24.8,23.9,00.0,33.8,26.6,08.1,0000.0,0014.53,0005.92,0004.67
2022-02-13 00:44:00,,0831.0,4.99,0.00,24.8,23.9,00.0,33.7,26.6,08.1,0000.0,0014.34,0005.90,0004.65
2022-02-13 00:45:00,,0831.0,5.01,0.00,24.8,23.9,00.0,33.7,26.6,08.1,0000.0,0014.65,0005.87,0004.66
2022-02-13 00:46:00,,0831.1,5.01,0.00,24.8,23.9,00.0,33.7,26.6,08.2,0000.0,0015.39,0005.95,0004.66
2022-02-13 00:47:00,,0831.1,4.99,0.00,24.8,23.9,00.0,33.7,26.6,08.2,0000.0,0016.37,0005.96,0004.63
2022-02-13 00:48:00,,0831.1,5.00,0.00,24.8,23.9,00.0,33.7,26.6,08.3,0000.0,0016.45,0005.92,0004.61
2022-02-13 00:49:00,,0831.2,5.01,0.00,24.8,23.9,00.0,33.7,26.6,08.3,0000.0,0016.80,0005.93,0004.61
2022-02-13 00:50:00,,0831.2,4.99,0.00,24.8,23.9,00.0,33.7,26.6,08.3,0000.0,0017.17,0005.98,0004.61
2022-02-13 00:51:00,,0831.1,5.01,0.00,24.8,23.9,00.0,33.7,26.6,08.3,0000.0,0017.28,0005.96,0004.60
2022-02-13 00:52:00,,0831.1,5.01,0.00,24.8,23.8,00.0,33.7,26.6,08.3,0000.0,0017.33,0005.90,0004.59
2022-02-13 00:53:00,,0831.2,5.00,0.00,24.7,23.8,00.0,33.7,26.6,08.3,0000.0,0017.22,0005.80,0004.58
2022-02-13 00:54:00,,0831.1,5.00,0.00,24.7,23.8,00.0,33.7,26.6,08.3,0000.0,0017.28,0005.83,0004.57
2022-02-13 00:55:00,,0831.1,4.99,0.00,24.7,23.8,00.0,33.7,26.6,08.3,0000.0,0017.25,0005.84,0004.57
2022-02-13 00:56:00,,0831.1,5.00,0.00,24.7,23.8,00.0,33.7,26.6,08.3,0000.0,0016.98,0005.82,0004.56
2022-02-13 00:57:00,,0831.1,4.99,0.00,24.7,23.8,00.0,33.7,26.5,08.3,0000.0,0016.31,0005.73,0004.57
2022-02-13 00:58:00,,0831.2,5.01,0.00,24.7,23.8,00.0,33.7,26.5,08.3,0000.0,0015.57,0005.72,0004.60
2022-02-13 00:59:00,,0831.2,5.00,0.00,24.7,23.8,00.0,33.7,26.5,08.3,0000.0,0015.51,0005.77,0004.63
